This is the latest recevied weather packets stored in our database for station/object KD2SIG. If no packets are shown the sender has not sent any weather packets the latest 10 day(s).
| Time | Temp. | Humidity | Pressure | Rain* | Wind** | Luminosity | Snow |
|---|---|---|---|---|---|---|---|
| 1778021919 | 13.89° C | 76% | 1007.7 hPa | 0 mm | - | 4 W/m² | - |
| 1778021617 | 13.89° C | 76% | 1007.7 hPa | 0 mm | - | 6 W/m² | - |
| 1778021311 | 13.89° C | 77% | 1007.4 hPa | 0 mm | - | 6 W/m² | - |
| 1778021010 | 13.89° C | 77% | 1007.4 hPa | 0 mm | - | 6 W/m² | - |
| 1778020706 | 13.89° C | 77% | 1007.4 hPa | 0 mm | - | 7 W/m² | - |
| 1778020404 | 13.89° C | 77% | 1007.1 hPa | 0 mm | - | 8 W/m² | - |
| 1778020099 | 14.44° C | 78% | 1007.2 hPa | 0 mm | - | 13 W/m² | - |
| 1778019795 | 14.44° C | 77% | 1007.3 hPa | 0 mm | - | 7 W/m² | - |
| 1778019493 | 14.44° C | 77% | 1007.1 hPa | 0 mm | - | 9 W/m² | - |
| 1778019189 | 14.44° C | 77% | 1006.9 hPa | 0 mm | - | 13 W/m² | - |
| 1778018887 | 15° C | 76% | 1006.7 hPa | 0 mm | - | 13 W/m² | - |
| 1778018583 | 15° C | 75% | 1006.7 hPa | 0 mm | - | 19 W/m² | - |
| 1778018282 | 15.56° C | 74% | 1006.3 hPa | 0 mm | - | 19 W/m² | - |
| 1778017979 | 15.56° C | 74% | 1006.3 hPa | 0 mm | - | 36 W/m² | - |
| 1778017676 | 15.56° C | 74% | 1006.2 hPa | 0 mm | - | 52 W/m² | - |
| 1778017373 | 15.56° C | 73% | 1006.1 hPa | 0 mm | - | 70 W/m² | - |
| 1778017065 | 16.11° C | 72% | 1006 hPa | 0 mm | - | 45 W/m² | - |
| 1778016763 | 16.11° C | 72% | 1006.1 hPa | 0 mm | - | 65 W/m² | - |
| 1778016458 | 16.11° C | 71% | 1006 hPa | 0 mm | - | 71 W/m² | - |
| 1778016156 | 16.67° C | 71% | 1005.9 hPa | 0 mm | - | 92 W/m² | - |
| 1778015852 | 17.22° C | 70% | 1005.8 hPa | 0 mm | - | 146 W/m² | - |
| 1778015550 | 17.22° C | 70% | 1005.5 hPa | 0 mm | - | 250 W/m² | - |
| 1778015246 | 17.22° C | 72% | 1005.3 hPa | 0 mm | - | 223 W/m² | - |
| 1778014943 | 16.67° C | 75% | 1005.4 hPa | 0 mm | - | 375 W/m² | - |
| 1778014641 | 16.67° C | 76% | 1005.5 hPa | 0 mm | - | 317 W/m² | - |
* Rain latest hour (hover to see other rain measurements)
** Current wind speed in m/s (hover to see current wind gust speed)